Miscellaneous Local Product
Issued by NWS Hastings, NE

Home | Current Version | Previous Version | Text Only | Print | Product List | Glossary On
Versions: 1 2 3 4 5 6 7 8 9 10 11 12 13 14 15 16 17 18 19 20 21 22 23 24 25 26 27 28 29 30 31 32 33 34 35 36 37 38 39 40 41 42 43 44 45 46 47 48 49 50
000
AXUS43 KGID 030402
MISGRI

GID CWA HOURLY WEATHER ROUNDUP
NATIONAL WEATHER SERVICE HASTINGS NE
1100 PM CDT TUE SEP 02 2014

NOTE: "FAIR" INDICATES FEW OR NO CLOUDS BELOW 12,000 FEET WITH NO
SIGNIFICANT WEATHER AND/OR OBSTRUCTIONS TO VISIBILITY.

...SOUTH CENTRAL NEBRASKA...

CITY           SKY/WX    TMP DP  RH WIND       PRES   REMARKS
GRAND ISLAND   CLEAR     69  59  70 SE9       29.92F
HASTINGS       CLEAR     71  58  63 SE10      29.93S
KEARNEY        CLEAR     66  61  82 SE12      29.93F
ORD            PTCLDY    68  61  78 SE12      29.88F
YORK           CLEAR     66 N/A N/A SE9       29.93F
AURORA         CLEAR     65  61  86 SE7       29.92F
LEXINGTON      CLEAR     69  65  85 SE10      29.91S
HOLDREGE       CLEAR     66  63  87 CALM      29.92F
HEBRON         CLEAR     67  59  76 SE5       29.93F

...NEBRASKA PANHANDLE...

CITY           SKY/WX    TMP DP  RH WIND       PRES   REMARKS
CHADRON        CLEAR     59  50  72 W5        29.79F
ALLIANCE       CLEAR     61  52  72 SE8       29.85F
SCOTTSBLUFF    CLEAR     62  52  69 E7        29.85F
SIDNEY         CLEAR     68  53  58 S10       29.92S

...WESTERN AND NORTH CENTRAL NEBRASKA...

CITY           SKY/WX    TMP DP  RH WIND       PRES   REMARKS
VALENTINE      CLEAR     72  59  63 S13       29.82S
AINSWORTH      CLEAR     69  59  69 S14       29.84F
ONEILL         PTCLDY    68  62  79 SE10      29.88S
BROKEN BOW     CLEAR     71  61  70 S14       29.90S
IMPERIAL       CLEAR     73  61  65 S14       29.90S
NORTH PLATTE   CLEAR     73  63  70 S16       29.87S
MCCOOK         CLEAR     72  64  76 SE6       29.91S

...EASTERN NEBRASKA...

CITY           SKY/WX    TMP DP  RH WIND       PRES   REMARKS
NORFOLK        CLEAR     66  58  75 SE7       29.91F
SO SIOUX CITY  PTCLDY    66  60  81 SE7       29.92F
TEKAMAH        CLEAR     63  60  90 CALM      29.93F
ALBION         CLEAR     65  60  81 S7        29.91F
OMAHA EPPLEY   CLEAR     69  59  70 S7        29.95F
OFFUTT AFB     CLEAR     63  63 100 E2        29.94F
MILLARD        CLEAR     66  62  86 CALM      29.94F
LINCOLN        CLEAR     70  59  68 SE7       29.94F
NEBRASKA CITY  CLEAR     69  62  78 SE5       29.95F
BEATRICE       CLEAR     68  59  72 SE5       29.93F
FALLS CITY     CLEAR     67  64  90 E3        29.94F

...NORTHERN KANSAS...

CITY           SKY/WX    TMP DP  RH WIND       PRES   REMARKS
GOODLAND       CLEAR     68  62  81 S12       29.96S
HILL CITY      CLEAR     72  66  81 S8        29.93S
NORTON         CLEAR     70  63  78 SE7       29.91F
PHILLIPSBURG   CLEAR     73  66  78 SE6       29.91F
SMITH CENTER   CLEAR     72  66  83 SE8       29.92S
HAYS           MOCLDY    75  66  73 SE8       29.93S
RUSSELL        PTCLDY    73  68  84 SE9       29.91F
CONCORDIA      MOCLDY    71  67  87 SE8       29.92F
SALINA         MOCLDY    76  66  71 SE9       29.92S
TOPEKA         CLEAR     72  70  93 E5        29.97R



USA.gov is the U.S. government's official web portal to all federal, state and local government web resources and services.